{"data":{"norad_id":67456,"epoch":"2026-09-19T03:59:28.853088Z","epoch_age_seconds":187480,"freshness":"STALE","line1":"1 67456U 26008M   26262.16630617  .00009810  00000+0  36544-3 0  9994","line2":"2 67456  42.9983 192.4226 0001230 249.2377 110.8343 15.27586703 39164","mean_motion":15.27586703,"eccentricity":0.000123,"inclination_deg":42.9983,"raan_deg":192.4226,"arg_perigee_deg":249.2377,"mean_anomaly_deg":110.8343,"bstar":0.00036544,"rev_number":3916,"period_min":94.266335074272,"perigee_km":482.18510149859,"apogee_km":483.87294834072,"semimajor_km":6861.1660249197,"source":"CELESTRAK","updated_at":"2026-09-20T09:00:43.549409Z"}}